www.pogodaiklimat.ru

Погода и климат >> Архив погоды >> Россия >> Краснодарский край >> Джубга


ПОГОДА в Джубге

  • Прогноз погоды в Джубге
  • Монитор погоды в Джубге

АРХИВ ПОГОДЫ в Джубге

Время (UTC), дата Ветер
(напр.,м/с)
 
Видим.   Явления Облачность Т
(С)
Тd
(С)
f
(%)
Тe
(С)
Тes
(С)
Комфортность P
(гПа)
Po
(гПа)
Тmin
(С)
Tmax
(С)
R
(мм)
R24
(мм)
S
(см)
09 17.03 Ю 1
{11}
10 км {ливн. осадки} 9/6 600 м
[Cb cap Ac As]
+9.4 +5.7 78 +9 +11 1008.8 1006.2
12 17.03 З 3
{13}
10 км {ливн. осадки} 10/8 600 м
[Cb cap Ac As]
+7.8 +3.2 73 +5 +6 1012.0 1009.4
15 17.03 З 1
{11}
10 км 8/4 600 м
[Cb cap Ac As]
+7.9 +2.3 68 +7 +7 1015.6 1013.0 +10.2 0.3
18 17.03 Ю 1 10 км 9/8 600 м
[Cb cap Ac As]
+7.8 +3.6 75 +7 +7 1018.2 1015.7
21 17.03 Ю 1 10 км слаб. ливневой дождь 10/10 600 м
[Cb cap]
+6.0 +3.4 83 +5 +5 1019.1 1016.5
00 18.03 штиль 0 10 км слаб. ливневой дождь 10/10 600 м
[Cb cap]
+4.3 +2.5 88 +3 +3 1020.2 1017.6
03 18.03 С 2 10 км {ливн. осадки} 4/1 600 м
[Cb cap Ac As]
+3.3 +1.9 91 0 0 1021.1 1018.5 +3.3 15
06 18.03 ЮВ 1 10 км {ливн. осадки} 10/10 600 м
[Cb cap]
+7.1 +5.3 88 +6 +6 1022.9 1020.3 +3.0
09 18.03 Ю 1 10 км 8/6 600 м
[Cb cap Ac As]
+9.8 +4.5 70 +10 +13 1023.4 1020.9
12 18.03 ЮЗ 2 10 км 8/4 600 м
[Cb cap Ac As]
+11.6 +5.2 65 +11 +13 1023.4 1020.8
15 18.03 штиль 0 10 км ясно +9.4 +3.2 65 +9 +9 1023.4 1020.8 +11.9
18 18.03 С 2 10 км ясно +5.1 +2.8 85 +3 +3 1023.6 1021.0
21 18.03 С 4 10 км ясно +6.9 +2.3 72 +4 +4 1023.0 1020.4
00 19.03 С 2 10 км ясно +6.3 +1.8 73 +4 +4 1023.6 1020.9
03 19.03 С 3 10 км ясно +2.7 +0.9 88 -1 -1 1023.9 1021.3 +2.4
06 19.03 С 2 10 км 6/4 600 м
[Cu med, cong Ac As Cc]
+6.8 +2.7 75 +5 +7 1024.3 1021.7 +1.9
09 19.03 Ю 2 10 км 6/5 600 м
[Cu med, cong Ac As]
+11.4 +5.4 67 +10 +15 1024.3 1021.7
12 19.03 ЮЗ 1 10 км 1/1 600 м
[Cu med, cong]
+12.3 +5.6 64 +12 +20 1023.2 1020.6
15 19.03 З 1 10 км ясно +9.5 +4.9 73 +9 +9 1021.6 1019.0 +12.6
18 19.03 С 3 10 км ясно +6.0 +3.2 82 +3 +3 1021.2 1018.6
21 19.03 СВ 1 10 км ясно +7.0 +4.5 84 +6 +6 1021.5 1018.9
00 20.03 С 4 10 км ясно +6.5 +3.2 79 +3 +3 1020.7 1018.1
03 20.03 С 4 10 км ясно +5.4 +2.6 82 +1 +1 1020.3 1017.7 +5.0
06 20.03 С 5 10 км ясно +6.7 +2.9 77 +3 +5 1020.4 1017.8
09 20.03 С 3
{10}
10 км ясно +12.6 +4.1 56 +11 +21 опасность
простуды
1020.1 1017.5
12 20.03 Ю 1 10 км ясно +13.3 +7.2 67 +14 +22 1019.7 1017.1
15 20.03 штиль 0 10 км ясно +10.5 +6.6 77 +10 +10 1020.2 1017.6 +13.9
18 20.03 штиль 0 10 км ясно +6.5 +4.5 87 +6 +6 1021.5 1018.9
21 20.03 штиль 0 10 км ясно +7.0 +5.3 89 +6 +6 1022.2 1019.6
00 21.03 штиль 0 10 км ясно +8.3 +6.3 87 +7 +7 1023.0 1020.4
03 21.03 ЮВ 2 10 км ясно +8.2 +5.8 85 +6 +6 1023.7 1021.1 +5.5
06 21.03 Ю 3 10 км 10/10 600 м
[Cb cap]
+8.5 +5.9 84 +6 +6 1025.2 1022.6
09 21.03 ЮВ 1 10 км 10/10 600 м
[Cb cap]
+9.2 +5.3 77 +9 +9 1026.1 1023.6
12 21.03 ЮВ 1 10 км 9/3 600 м
[Cb cap Ac As]
+11.0 +4.6 65 +11 +13 1025.9 1023.3
15 21.03 Ю 2 10 км 10/10 600 м
[Cb cap]
+9.4 +4.9 73 +8 +8 1025.8 1023.2 +12.5
18 21.03 штиль 0 10 км 10/10 600 м
[Cb cap]
+8.8 +5.3 79 +8 +8 1026.6 1024.0
21 21.03 штиль 0 10 км 10/10 600 м
[Cb cap]
+8.6 +5.1 79 +8 +8 1026.3 1023.7
00 22.03 С 1 10 км 10/10 600 м
[Cb cap]
+7.5 +5.4 87 +7 +7 1025.8 1023.2
03 22.03 В 1 10 км 10/6 600 м
[Cb cap Ac As]
+5.2 +3.7 90 +4 +4 1025.3 1022.7 +5.0
06 22.03 Ю 1 10 км 10/5 600 м
[Cb cap Ac As]
+8.7 +5.1 78 +8 +9 1025.6 1023.0
09 22.03 З 3 10 км 3/3 600 м
[Cu med, cong]
+11.0 +4.7 65 +9 +16 1025.0 1022.4
12 22.03 З 3 10 км 9/0
[Cs]
+10.7 +4.0 63 +9 +14 1024.1 1021.5
15 22.03 ЮЗ 1 10 км 10/0
[Ac As]
+8.9 +4.3 73 +8 +9 1023.3 1020.7 +11.1
18 22.03 Ю 1 10 км 4/0
[Ac As]
+8.8 +5.1 78 +8 +8 1023.0 1020.4
21 22.03 Ю 1 10 км 4/0
[Ac As]
+8.7 +5.1 78 +8 +8 1021.3 1018.7
00 23.03 Ю 5-10
{11}
10 км 3/0
[]
+8.6 +4.9 78 +5 +5 1018.7 1016.2
03 23.03 ЮЗ 2
{11}
10 км слаб. ливневой дождь 10/10 600 м
[Cb cap]
+6.7 +4.7 87 +4 +4 1016.7 1014.1 +6.7 5
06 23.03 В 1 10 км слаб. ливневой дождь 10/10 600 м
[Cb cap]
+4.5 +2.3 86 +3 +3 1016.9 1014.3 +4.4
09 23.03 ЮВ 1 10 км {ливн. осадки} 10/10 600 м
[Cb cap]
+5.8 +2.0 77 +5 +5 1015.8 1013.2
12 23.03 Ю 2 10 км {ливн. осадки} 8/3 600 м
[Cb cap Ac trans]
+6.6 +2.0 72 +5 +8 1014.9 1012.4
15 23.03 С 2
{10}
10 км {ливн. осадки} 8/8 600 м
[Cb cap]
+4.8 +0.3 73 +2 +2 1015.7 1013.1 +8.5 1
18 23.03 С 2 10 км {ливн. осадки} ясно +1.8 -0.1 87 -2 -2 1017.1 1014.4
21 23.03 С 2 10 км туман на расстоянии ясно -0.3 -1.4 92 -4 -4 1017.8 1015.2
00 24.03 С 2 н/о н/о -1.3 -2.1 94 -5 -5 1017.8 1015.1
03 24.03 С 2 10 км 6/0
[Cs]
-0.7 -1.5 94 -5 -5 1018.2 1015.6 -1.5

 

Местоположение метеостанции Джубга (Краснодарский край, Россия): широта 44.33 долгота 38.72 высота над уровнем моря 23 м.

В архиве по умолчанию представлена погода в Джубге за последнюю неделю. Архивные данные за месяц целиком и за предыдущие месяцы, начиная с января 2011 года, Вы можете получить, выбрав интересующий диапазон дат из раскрывающегося списка и нажав кнопку "Ввод!".


*Определитесь, кто Вы:
робот инопланетянин человек

Внимание! Время в таблицах - всемирное. Для получения местного времени необходимо прибавить поправку, которая равна 3 ч.

Смотрите также архив погоды в соседних городах и на ближайших метеорологических станциях:

Погода в Туапсе (Краснодарский край, Россия) (38 км)
Погода в Горном (Краснодарский край, Россия) (44 км)
Погода в Горячем Ключе (Краснодарский край, Россия) (45 км)
Погода в Магри (Краснодарский край, Россия) (49 км)
Погода в Геленджике (Краснодарский край, Россия) (57 км)
Погода в Лазаревском (Краснодарский край, Россия) (68 км)
Погода в Новороссийске (Краснодарский край, Россия) (81 км)
Погода в Краснодаре (Краснодарский край, Россия) (84 км)
Погода в Кичмае (Краснодарский край, Россия) (84 км)
Погода в Крымске (Краснодарский край, Россия) (87 км)

Пояснения к столбцам:

Ветер - указаны скорость ветра в м/с - средняя за 10 мин, порывы в срок и между сроками (в фигурных скобках) и направление, откуда дует ветер: С - северный, СВ - северо-восточный, В - восточный, ЮВ - юго-восточный, Ю - южный, ЮЗ - юго-западный, З - западный, СЗ - северо-западный.
Видимость - горизонтальная дальность видимости в метрах или километрах. При видимости от 1 до 10 км при отсутствии осадков обычно наблюдается дымка, при ухудшении видимости до 1 км и менее - туман. В сухую погоду видимость может ухудшаться дымом, пылью или мглою.
Явления - указаны атмосферные явления, наблюдавшиеся в срок или в последний час перед сроком; фигурными скобками обозначены явления, наблюдавшиеся между сроками (за 1-3 часа до срока); квадратными скобками обозначены град или гололедные отложения с указанием их диаметра в мм.
Облачность - указаны через наклонную черту общая и нижняя облачность в баллах и высота нижней границы облаков в метрах; квадратными скобками обозначены формы облаков: Ci - перистые, Cs - перисто-слоистые, Cc - перисто-кучевые, Ac - высококучевые, As - высокослоистые, Sc - слоисто-кучевые, Ns - слоисто-дождевые, Cu - кучевые, Cb - кучево-дождевые. Подробнее классификацию облаков см. в Атласе облаков (PDF).
T - Температура воздуха - температура, измеренная на высоте 2 м над землей.
Td - Температура точки росы - температура, при понижении до которой содержащийся в воздухе водяной пар достигнет насыщения.
f - Относительная влажность воздуха - влажноcть воздуха, измеренная на высоте 2 м над землей.
Te - Эффективная температура - температура, которую ощущает одетый по сезону человек в тени. Характеристика душности погоды. При расчете учитывается влияние влажности воздуха и скорости ветра на теплоощущения человека.
Tes - Эффективная температура на солнце - температура, которую ощущает человек, с поправкой на солнечный нагрев. Характеристика знойности погоды. Зависит от высоты солнца над горизонтом, облачности и скорости ветра. Ночью, в пасмурную погоду, а также при ветре 12 м/с и более поправка равна нулю.
P - Атмосферное давление - приведенное к уровню моря атмосферное давление.
Po - Атмосферное давление - измеренное на уровне метеостанции атмосферное давление.
Tmin - Минимальная температура - минимум температуры воздуха на высоте 2 м над землей.
Tmax - Максимальная температура - максимум температуры воздуха на высоте 2 м над землей.
R - Количество осадков - Количество выпавших осадков за период времени, мм. При наведении курсора мыши на число - период времени, за который выпало указанное количество осадков.
R24 - Количество осадков - Количество выпавших осадков за 24 часа, мм.
S - Снежный покров - Высота снежного покрова, см. При наведении курсора мыши на число - состояние снежного покрова и степень покрытия местности в баллах.